User: anonymous   Login
Location: Unspecified
(0.0000°N, 0.0000°E)
Time: 13:11:37
(UTC+00:00)
Language:

Jikiken - Orbit

View from above orbital plane
View from above orbital plane
View from above satellite
View from above satellite

Ground track
Ground track

The orbit data is extracted from the following two-line orbital elements,

1 11027U 78087A   18112.46053103  .30876732 -28323-5  36693-3 0  9996
2 11027  30.9775 144.4309 0104397   6.3627 354.6589 16.33048659477448
Epoch (UTC): 22 April 2018 11:03:09
Eccentricity: 0.0104397
inclination: 30.9775°
perigee height: 116 km
apogee height: 253 km
right ascension of ascending node: 144.4309°
argument of perigee: 6.3627°
revolutions per day: 16.33048659
mean anomaly at epoch: 354.6589°
orbit number at epoch: 47744

The dashed part of the orbit path shows where the satellite is in the earth's shadow,  

DLR